Clovis, NM

8:17 PM MDT on June 22, 2017 (GMT -0600)
Clovis Municipal

Weather History for KCVN - May, 2013

Change the Weather History Date:

Tuesday, May 14, 2013

  Actual Average Record
Temperature  
Mean Temperature 68 °F -  
Max Temperature 84 °F 79 °F 94 °F (1960)
Min Temperature 51 °F 48 °F 31 °F (1953)
Cooling Degree Days 2    
Growing Degree Days 18 (Base 50)    
Moisture  
Dew Point 36 °F    
Average Humidity 33    
Maximum Humidity 63    
Minimum Humidity 12    
Precipitation  
Precipitation 0.11 in - - ()
Sea Level Pressure  
Sea Level Pressure 30.09 in    
Wind  
Wind Speed 12 mph (SSW)    
Max Wind Speed 20 mph    
Max Gust Speed 28 mph    
Visibility 10 miles    
Events      
Averages and records for this station are not official NWS values.
T = Trace of Precipitation, MM = Missing Value Source: NWS Daily Summary

Daily Weather History Graph

Daily Weather History Graph

Search for Another Location

Airport or City:

Trip Planner

Search our weather history database for the weather conditions in past years. The results will help you decide how hot, cold, wet, or windy it might be!

Date:

Astronomy

May. 14, 2013 Rise Set
Actual Time 5:50 AM MDT 7:47 PM MDT
Civil Twilight 5:22 AM MDT 8:15 PM MDT
Nautical Twilight 4:49 AM MDT 8:48 PM MDT
Astronomical Twilight 4:13 AM MDT 9:24 PM MDT
Moon 9:31 AM MDT (5/14) 11:37 PM MDT (5/14)
Length of Visible Light 14h 52m
Length of Day
13h 56m
Waxing Crescent, 19% of the Moon is Illuminated
May 14
Waxing Crescent
May 17
First Quarter
May 24
Full
May 31
Last Quarter
Jun 8
New

Hourly Weather History & Observations

Time (MDT) Temp. Dew Point Humidity Pressure Visibility Wind Dir Wind Speed Gust Speed Precip Events Conditions
12:15 AM 55.4 °F 24.8 °F 31% 30.21 in 10.0 mi SSW 8.1 mph - N/A   Clear
12:35 AM 55.4 °F 26.6 °F 33% 30.20 in 10.0 mi SSW 10.4 mph - N/A   Clear
12:55 AM 57.2 °F 26.6 °F 31% 30.20 in 10.0 mi SSW 10.4 mph - N/A   Clear
1:15 AM 55.4 °F 28.4 °F 36% 30.20 in 10.0 mi SSW 11.5 mph - N/A   Clear
1:35 AM 57.2 °F 30.2 °F 36% 30.19 in 10.0 mi SSW 13.8 mph - N/A   Clear
1:55 AM 57.2 °F 33.8 °F 41% 30.19 in 10.0 mi SSW 12.7 mph - N/A   Clear
2:15 AM 57.2 °F 35.6 °F 44% 30.19 in 8.0 mi SW 12.7 mph - N/A   Clear
2:35 AM 59.0 °F 37.4 °F 45% 30.18 in 10.0 mi SSW 15.0 mph - N/A   Clear
2:55 AM 59.0 °F 39.2 °F 48% 30.18 in 10.0 mi SSW 15.0 mph - N/A   Clear
3:15 AM 59.0 °F 39.2 °F 48% 30.18 in 10.0 mi SSW 16.1 mph - N/A   Clear
3:35 AM 57.2 °F 39.2 °F 51% 30.19 in 10.0 mi SW 12.7 mph - N/A   Clear
3:55 AM 55.4 °F 39.2 °F 54% 30.19 in 10.0 mi SW 10.4 mph - N/A   Clear
4:15 AM 53.6 °F 39.2 °F 58% 30.19 in 10.0 mi WSW 9.2 mph - N/A   Clear
4:35 AM 55.4 °F 41.0 °F 58% 30.19 in 10.0 mi WSW 10.4 mph - N/A   Clear
4:55 AM 53.6 °F 39.2 °F 58% 30.19 in 10.0 mi WSW 9.2 mph - N/A   Clear
5:15 AM 53.6 °F 39.2 °F 58% 30.19 in 10.0 mi WSW 8.1 mph - N/A   Clear
5:35 AM 51.8 °F 39.2 °F 62% 30.19 in 10.0 mi WSW 6.9 mph - N/A   Clear
5:55 AM 51.8 °F 39.2 °F 62% 30.19 in 10.0 mi WSW 8.1 mph - N/A   Clear
6:15 AM 53.6 °F 41.0 °F 62% 30.19 in 10.0 mi WSW 6.9 mph - N/A   Clear
6:35 AM 55.4 °F 42.8 °F 63% 30.19 in 10.0 mi West 6.9 mph - N/A   Clear
6:55 AM 57.2 °F 42.8 °F 59% 30.19 in 10.0 mi WSW 8.1 mph - N/A   Clear
7:15 AM 60.8 °F 44.6 °F 55% 30.19 in 10.0 mi West 9.2 mph - N/A   Clear
7:35 AM 62.6 °F 44.6 °F 52% 30.19 in 10.0 mi WSW 11.5 mph - N/A   Clear
7:55 AM 64.4 °F 46.4 °F 52% 30.19 in 10.0 mi SW 12.7 mph - N/A   Clear
8:15 AM 64.4 °F 46.4 °F 52% 30.18 in 10.0 mi SW 13.8 mph - N/A   Clear
8:35 AM 66.2 °F 46.4 °F 49% 30.18 in 10.0 mi SSW 15.0 mph - N/A   Clear
8:55 AM 68.0 °F 46.4 °F 46% 30.18 in 10.0 mi SSW 10.4 mph - N/A   Clear
9:15 AM 69.8 °F 46.4 °F 43% 30.17 in 10.0 mi SSW 12.7 mph - N/A   Clear
9:35 AM 71.6 °F 46.4 °F 41% 30.17 in 10.0 mi SSW 11.5 mph - N/A   Clear
9:55 AM 73.4 °F 46.4 °F 38% 30.16 in 10.0 mi SW 9.2 mph 17.3 mph N/A   Clear
10:15 AM 75.2 °F 46.4 °F 36% 30.16 in 10.0 mi SW 17.3 mph - N/A   Clear
10:35 AM 75.2 °F 42.8 °F 31% 30.15 in 10.0 mi SSW 12.7 mph - N/A   Clear
10:55 AM 77.0 °F 41.0 °F 28% 30.15 in 10.0 mi SW 10.4 mph 18.4 mph N/A   Clear
11:15 AM 78.8 °F 41.0 °F 26% 30.14 in 10.0 mi South 11.5 mph 18.4 mph N/A   Clear
11:35 AM 78.8 °F 41.0 °F 26% 30.13 in 10.0 mi SW 12.7 mph 19.6 mph N/A   Clear
11:55 AM 80.6 °F 39.2 °F 23% 30.12 in 10.0 mi SSW 11.5 mph 21.9 mph N/A   Clear
12:15 PM 80.6 °F 39.2 °F 23% 30.11 in 6.0 mi SSW 11.5 mph 19.6 mph 0.11 in   Clear
12:35 PM 80.6 °F 39.2 °F 23% 30.10 in 10.0 mi South 17.3 mph 24.2 mph 0.11 in   Clear
12:55 PM 82.4 °F 39.2 °F 21% 30.09 in 10.0 mi SSW 16.1 mph 27.6 mph 0.11 in   Clear
1:15 PM 80.6 °F 37.4 °F 21% 30.08 in 10.0 mi SW 11.5 mph 20.7 mph N/A   Clear
1:35 PM 82.4 °F 35.6 °F 19% 30.07 in 10.0 mi SSW 16.1 mph 24.2 mph N/A   Clear
1:55 PM 82.4 °F 37.4 °F 20% 30.06 in 10.0 mi SW 15.0 mph 27.6 mph N/A   Clear
2:15 PM 84.2 °F 35.6 °F 18% 30.05 in 10.0 mi SW 10.4 mph 25.3 mph N/A   Clear
2:35 PM 82.4 °F 33.8 °F 17% 30.04 in 10.0 mi SW 15.0 mph 27.6 mph N/A   Clear
2:55 PM 84.2 °F 33.8 °F 16% 30.03 in 10.0 mi SSW 18.4 mph 24.2 mph N/A   Clear
3:15 PM 84.2 °F 32.0 °F 15% 30.01 in 10.0 mi SW 15.0 mph 23.0 mph N/A   Clear
3:35 PM 84.2 °F 30.2 °F 14% 30.01 in 10.0 mi South 13.8 mph 23.0 mph N/A   Clear
3:55 PM 84.2 °F 30.2 °F 14% 30.00 in 10.0 mi SSW 16.1 mph 23.0 mph N/A   Clear
4:15 PM 84.2 °F 30.2 °F 14% 29.98 in 10.0 mi SSW 15.0 mph 20.7 mph N/A   Clear
4:35 PM 84.2 °F 28.4 °F 13% 29.98 in 10.0 mi SW 17.3 mph 21.9 mph N/A   Clear
4:55 PM 84.2 °F 28.4 °F 13% 29.97 in 10.0 mi SW 19.6 mph - N/A   Clear
5:15 PM 84.2 °F 28.4 °F 13% 29.97 in 10.0 mi SSW 9.2 mph 20.7 mph N/A   Clear
5:35 PM 84.2 °F 28.4 °F 13% 29.96 in 10.0 mi SW 11.5 mph - N/A   Clear
5:55 PM 84.2 °F 26.6 °F 12% 29.96 in 10.0 mi SSW 13.8 mph 19.6 mph N/A   Clear
6:15 PM 84.2 °F 26.6 °F 12% 29.95 in 10.0 mi SW 15.0 mph - N/A   Clear
6:35 PM 82.4 °F 24.8 °F 12% 29.95 in 10.0 mi South 18.4 mph 21.9 mph N/A   Clear
6:55 PM 82.4 °F 24.8 °F 12% 29.95 in 10.0 mi SSW 12.7 mph - N/A   Clear
7:15 PM 80.6 °F 23.0 °F 12% 29.95 in 10.0 mi SSW 9.2 mph - N/A   Clear
7:35 PM 77.0 °F 24.8 °F 14% 29.95 in 10.0 mi SSW 12.7 mph 17.3 mph N/A   Clear
7:55 PM 75.2 °F 28.4 °F 18% 29.96 in 10.0 mi South 11.5 mph - N/A   Clear
8:15 PM 71.6 °F 28.4 °F 20% 29.96 in 10.0 mi South 9.2 mph - N/A   Clear
8:55 PM 66.2 °F 32.0 °F 28% 29.96 in 10.0 mi SSW 11.5 mph - N/A   Clear
9:15 PM 64.4 °F 30.2 °F 28% 29.97 in 10.0 mi South 9.2 mph - N/A   Clear
9:35 PM 64.4 °F 30.2 °F 28% 29.98 in 10.0 mi SSE 9.2 mph - N/A   Clear
9:55 PM 62.6 °F 30.2 °F 30% 29.98 in 10.0 mi South 6.9 mph - N/A   Clear
10:15 PM 62.6 °F 30.2 °F 30% 29.99 in 10.0 mi SSE 9.2 mph - N/A   Clear
10:35 PM 62.6 °F 33.8 °F 34% 29.99 in 10.0 mi South 12.7 mph - N/A   Clear
10:55 PM 64.4 °F 37.4 °F 37% 29.99 in 10.0 mi South 16.1 mph - N/A   Clear
11:15 PM 62.6 °F 37.4 °F 39% 30.00 in 10.0 mi South 12.7 mph - N/A   Clear
11:35 PM 62.6 °F 35.6 °F 37% 30.01 in 10.0 mi South 15.0 mph - N/A   Clear
11:55 PM 62.6 °F 35.6 °F 37% 30.01 in 10.0 mi South 13.8 mph - N/A   Clear